{"data":{"norad_id":60399,"intl_designator":"2024-141B","name":"STARLINK-11182 [DTC]","alt_names":[],"object_type":"PAYLOAD","status":"ACTIVE","operator":null,"country":"US","launch_date":"2024-08-10","launch_site_code":"AFETR","launch_vehicle":null,"mission":null,"orbit_class":"UNKNOWN","rcs_meters":null,"size_class":null,"mass_kg":null,"dimensions":null,"purposes":["comms"],"wikipedia_slug":null,"has_3d_model":false,"image_url":null,"decayed_at":null,"tle_current":{"epoch":"2026-09-21T05:01:47.895168Z","epoch_age_seconds":124356,"freshness":"FRESH","line1":"1 60399U 24141B   26264.20958212 -.00002192  00000+0 -13248-4 0  9995","line2":"2 60399  53.1589 202.2629 0001023 101.5862 258.5271 15.69689869122453","mean_motion":15.69689869,"eccentricity":0.0001023,"inclination_deg":53.1589,"raan_deg":202.2629,"arg_perigee_deg":101.5862,"mean_anomaly_deg":258.5271,"bstar":-1.3248e-5,"rev_number":12245,"period_min":91.737866723787,"perigee_km":359.09506889676,"apogee_km":360.47364760666,"semimajor_km":6737.9213582517,"source":"CELESTRAK","updated_at":"2026-09-22T09:00:49.228646Z"}}}